K9UO Weather Reports


time (UTC)temp
F
wind
direction
speed
knots
gust
knots
rain 1hr
in
rain 24hr
in
rain mn
in
humidity
%
barometer
mb
20260506033028 46 9 2.6 7.0 0.01 0.44 0.44 1 1009.0
20260506031538 46 74 0.0 1.7 0.02 0.44 0.44 1 1009.2
20260506030016 46 73 0.0 1.7 0.01 0.43 0.43 1 1009.2
20260506024515 46 64 0.9 2.6 0.02 0.43 0.43 1 1009.1
20260506023007 46 62 0.9 3.5 0.03 0.43 0.43 1 1008.7
20260506021503 47 61 0.0 3.5 0.03 0.42 0.42 1 1008.9
20260506020059 47 63 0.0 0.9 0.04 0.42 0.42 1 1008.8
20260506014555 47 63 0.0 0.9 0.04 0.41 0.41 1 1008.6
20260506013103 47 62 0.0 0.9 0.05 0.40 0.40 1 1008.4
20260506011546 47 62 0.0 1.7 0.05 0.39 0.39 1 1008.0
20260506010053 47 59 0.0 1.7 0.05 0.38 0.38 1 1007.9
20260506004536 47 37 0.9 1.7 0.04 0.37 0.37 1 1008.1
20260506003032 47 360 2.6 4.3 0.03 0.35 0.35 1 1008.5
20260506001530 47 12 0.0 3.5 0.03 0.34 0.34 1 1008.4
20260506000023 47 12 0.0 0.0 0.02 0.33 0.33 1 1008.2
20260505234519 47 11 0.0 3.5 0.03 0.33 0.33 1 1008.1
20260505233014 47 15 0.9 7.8 0.02 0.32 0.32 1 1008.0
20260505231513 48 19 1.7 6.1 0.02 0.31 0.31 1 1008.3
20260505230005 48 18 4.3 9.6 0.02 0.31 0.31 1 1008.3
20260505224501 49 5 4.3 7.8 0.02 0.30 0.30 1 1008.3
20260505223057 49 360 4.3 8.7 0.02 0.30 0.30 1 1008.2
20260505221552 49 11 3.5 8.7 0.02 0.28 0.28 1 1008.2
20260505220048 49 351 4.3 10.4 0.02 0.28 0.28 1 1008.1
20260505214544 50 18 6.1 12.2 0.02 0.28 0.28 1 1007.9
20260505213038 50 355 5.2 7.8 0.02 0.28 0.28 1 1007.6
20260505211535 50 16 2.6 7.0 0.02 0.27 0.27 1 1007.4
20260505210030 51 5 2.6 9.6 0.03 0.27 0.27 1 1007.3
20260505204525 52 355 6.1 7.8 0.02 0.26 0.26 1 1007.1
20260505203029 52 14 0.9 2.6 0.03 0.25 0.25 1 1006.8
20260505201518 52 24 0.0 1.7 0.06 0.25 0.25 1 1006.8
20260505200012 52 22 0.0 1.7 0.06 0.24 0.24 1 1006.7
20260505194507 52 18 0.0 3.5 0.08 0.24 0.24 1 1007.3
20260505193003 52 9 0.9 1.7 0.06 0.22 0.22 1 1007.6
20260505191608 52 13 1.7 5.2 0.03 0.19 0.19 1 1007.7
20260505184550 51 5 0.9 4.3 0.00 0.16 0.16 1 1007.5
20260505183109 51 5 2.6 4.3 0.00 0.16 0.16 1 1007.3
20260505181541 50 5 1.7 4.3 0.00 0.16 0.16 1 1007.5
20260505180038 50 351 1.7 3.5 0.00 0.16 0.16 1 1007.8
20260505174537 50 355 1.7 4.3 0.00 0.16 0.16 1 1007.7
20260505173037 51 5 2.6 4.3 0.00 0.16 0.16 1 1007.5
20260505171536 51 16 4.3 7.0 0.00 0.16 0.16 1 1007.8
20260505170022 53 355 4.3 7.0 0.00 0.16 0.16 1 1007.6
20260505164515 54 16 4.3 7.8 0.01 0.16 0.16 1 1007.7
20260505163011 58 234 3.5 6.1 0.01 0.16 0.16 1 1007.5
20260505161506 57 250 1.7 7.0 0.01 0.16 0.16 1 1007.7
20260505153053 56 236 5.2 11.3 0.00 0.15 0.15 1 1007.8
20260505151548 56 229 5.2 11.3 0.00 0.15 0.15 1 1007.7
20260505124506 55 226 7.0 10.4 0.00 0.15 0.15 1 1005.6
20260505123005 55 205 6.1 9.6 0.00 0.15 0.15 1 1005.8
20260505121504 54 221 5.2 9.6 0.00 0.15 0.15 1 1005.7
20260505120117 54 227 7.0 12.2 0.00 0.15 0.15 1 1006.0
20260505114557 54 226 6.1 9.6 0.00 0.15 0.15 1 1006.0
20260505113051 54 215 4.3 9.6 0.00 0.15 0.15 1 1005.7
20260505111547 54 214 5.2 8.7 0.00 0.15 0.15 1 1005.4
20260505101529 54 213 3.5 9.6 0.00 0.15 0.15 1 1004.2
20260505100026 54 199 3.5 11.3 0.01 0.15 0.15 1 1003.9
20260505094520 54 200 6.1 12.2 0.01 0.15 0.15 1 1003.8
20260505093015 54 207 5.2 8.7 0.01 0.15 0.15 1 1003.1
20260505091522 54 195 5.2 13.0 0.03 0.15 0.15 1 1003.5
20260505090013 55 197 5.2 12.2 0.04 0.14 0.14 1 1003.7
20260505084502 55 197 6.1 13.9 0.08 0.14 0.14 1 1004.1
20260505083058 56 199 7.8 12.2 0.10 0.14 0.14 1 1005.0
20260505081555 55 203 5.2 8.7 0.09 0.12 0.12 1 1005.0
20260505080054 55 202 2.6 7.8 0.08 0.10 0.10 1 1004.7
20260505074551 55 209 3.5 11.3 0.04 0.06 0.06 1 1005.4
20260505073058 55 217 5.2 7.8 0.04 0.04 0.04 1 1005.9
20260505071537 54 360 4.3 7.8 0.03 0.03 0.03 1 1005.4
20260505070033 54 267 0.0 5.2 0.02 0.02 0.02 1 1005.4
20260505064539 55 278 1.7 7.0 0.02 0.02 0.02 1 1006.0
20260505063024 56 306 3.5 8.7 0.00 0.00 0.00 1 1005.6
20260505061530 59 234 2.6 7.8 0.00 0.00 0.00 10 1005.5
20260505060015 63 300 7.0 12.2 0.00 0.00 0.00 54 1005.2
20260505054511 65 318 4.3 8.7 0.00 0.00 0.00 57 1004.5
20260505053007 65 307 4.3 11.3 0.00 0.00 0.00 57 1003.9
20260505051506 65 213 7.8 13.9 0.00 0.00 0.00 57 1002.7
20260505041600 65 204 6.1 9.6 0.00 0.00 0.00 57 1002.2
20260505040056 66 205 6.1 12.2 0.00 0.00 0.00 57 1002.5
20260505034550 66 206 6.1 11.3 0.00 0.00 0.00 57 1002.6